{"data":{"norad_id":62366,"epoch":"2026-05-25T03:46:31.253952Z","epoch_age_seconds":61134,"freshness":"FRESH","line1":"1 62366U 24245B   26145.15730618  .00000051  00000+0  12296-3 0  9997","line2":"2 62366  44.9808  64.2017 0005500 283.2839  76.7380 13.99178895 73105","mean_motion":13.99178895,"eccentricity":0.00055,"inclination_deg":44.9808,"raan_deg":64.2017,"arg_perigee_deg":283.2839,"mean_anomaly_deg":76.738,"bstar":0.00012296,"rev_number":7310,"period_min":102.917504341,"perigee_km":892.63874660316,"apogee_km":900.64100116443,"semimajor_km":7274.7768738838,"source":"CELESTRAK","updated_at":"2026-05-25T13:38:02.941860Z"}}